This is the latest recevied weather packets stored in our database for station/object W1CAT. If no packets are shown the sender has not sent any weather packets the latest 10 day(s).
| Time | Temp. | Humidity | Pressure | Rain* | Wind** | Luminosity | Snow |
|---|---|---|---|---|---|---|---|
| 1777873743 | 2.22° C | 61% | - | 0 mm | - | - | - |
| 1777873439 | 2.78° C | 61% | - | 0 mm | - | - | - |
| 1777873136 | 2.78° C | 58% | - | 0 mm | - | - | - |
| 1777872832 | 3.33° C | 60% | - | 0 mm | - | - | - |
| 1777872529 | 3.33° C | 56% | - | 0 mm | - | - | - |
| 1777872227 | 3.33° C | 58% | - | 0 mm | - | - | - |
| 1777871924 | 3.33° C | 59% | - | 0 mm | - | - | - |
| 1777871620 | 3.89° C | 57% | - | 0 mm | - | - | - |
| 1777871317 | 3.89° C | 57% | - | 0 mm | - | - | - |
| 1777871014 | 4.44° C | 57% | - | 0 mm | - | - | - |
| 1777870711 | 5° C | 53% | - | 0 mm | - | - | - |
| 1777870407 | 5.56° C | 51% | - | 0 mm | - | - | - |
| 1777870104 | 5.56° C | 51% | - | 0 mm | - | - | - |
| 1777869801 | 5.56° C | 50% | - | 0 mm | - | - | - |
| 1777869498 | 5.56° C | 50% | - | 0 mm | - | - | - |
| 1777869195 | 5.56° C | 51% | - | 0 mm | - | - | - |
| 1777868893 | 5.56° C | 52% | - | 0 mm | - | - | - |
| 1777868589 | 5.56° C | 49% | - | 0 mm | - | - | - |
| 1777868285 | 6.11° C | 49% | - | 0 mm | - | - | - |
| 1777867981 | 6.67° C | 47% | - | 0 mm | - | - | - |
| 1777867678 | 6.11° C | 47% | - | 0 mm | - | - | - |
| 1777867375 | 6.11° C | 47% | - | 0 mm | - | - | - |
| 1777867071 | 6.67° C | 47% | - | 0 mm | - | - | - |
| 1777866768 | 6.67° C | 47% | - | 0 mm | - | - | - |
| 1777866466 | 7.22° C | 43% | - | 0 mm | - | - | - |
* Rain latest hour (hover to see other rain measurements)
** Current wind speed in m/s (hover to see current wind gust speed)